Tracking 30743 objects as of 23-Jun-2025
HD Live streaming from Space Station
objects crossing your sky now

SL-16 DEB

Track SL-16 DEB now!
10-day predictions


NORAD ID: 31794
Int'l Code: 2007-029C
Perigee: 850.6 km
Apogee: 1,150.8 km
Inclination: 71.0 °
Period: 105.0 minutes
Semi major axis: 7371 km
RCS: 0.083 m2 (small)
Launch date: June 29, 2007
Source: Commonwealth of Independent States (former USSR) (CIS)
Launch site: TYURATAM MISSILE AND SPACE COMPLEX (TTMTR)

Note: This is SATELLITE DEBRIS
Your satellite tracking list
Your tracking list is empty




NASA's NSSDC Master Catalog

Two Line Element Set (TLE):
1 31794U 07029C   25173.59746575  .00000014  00000-0  52638-4 0  9991
2 31794  71.0434 278.7441 0203584  99.5229 279.7856 13.71672717900034
Source of the keplerian elements: AFSPC